OAW8 LSGG-LSZB

Flight info

Callsign OAW8
Flight time 0h 23m
Altitude 17000
Route SOSAL Z61 FRIBU
Aircraft E190/M-VGDW/C

Departure

Time 2026-04-20 12:10
Airport Geneva International Airport (LSGG)

Arrival

Time 2026-04-20 12:34
Airport Bern Airport (LSZB)
Time Latitude Longitude Altitude Speed Heading
2026-04-20 11:38 46.23157 6.10739 1391 ft 0 kts 135°
2026-04-20 11:43 46.23005 6.10532 1398 ft 0 kts 135°
2026-04-20 11:56 46.23011 6.10523 1404 ft 4 kts 139°
2026-04-20 11:56 46.23033 6.10502 1396 ft 4 kts 166°
2026-04-20 11:56 46.23058 6.10502 1396 ft 4 kts 214°
2026-04-20 11:56 46.23066 6.10512 1398 ft 1 kts 225°
2026-04-20 12:02 46.23064 6.10508 1391 ft 1 kts 225°
2026-04-20 12:03 46.23054 6.10494 1402 ft 3 kts 225°
2026-04-20 12:03 46.23033 6.10465 1391 ft 5 kts 225°
2026-04-20 12:03 46.23002 6.10418 1391 ft 8 kts 226°
2026-04-20 12:03 46.22993 6.10405 1391 ft 0 kts 226°
2026-04-20 12:04 46.22990 6.10401 1391 ft 2 kts 226°
2026-04-20 12:04 46.22987 6.10397 1391 ft 0 kts 225°
2026-04-20 12:05 46.22982 6.10389 1391 ft 3 kts 226°
2026-04-20 12:06 46.22956 6.10348 1391 ft 7 kts 232°
2026-04-20 12:06 46.22968 6.10285 1394 ft 8 kts 309°
2026-04-20 12:06 46.23009 6.10225 1392 ft 9 kts 317°
2026-04-20 12:06 46.23055 6.10156 1392 ft 9 kts 300°
2026-04-20 12:07 46.23030 6.10090 1393 ft 8 kts 226°
2026-04-20 12:07 46.22984 6.10021 1395 ft 10 kts 225°
2026-04-20 12:07 46.22927 6.09937 1398 ft 13 kts 226°
2026-04-20 12:07 46.22852 6.09826 1399 ft 18 kts 224°
2026-04-20 12:08 46.22759 6.09692 1394 ft 19 kts 226°
2026-04-20 12:08 46.22664 6.09552 1397 ft 20 kts 225°
2026-04-20 12:08 46.22576 6.09413 1399 ft 18 kts 237°
2026-04-20 12:08 46.22551 6.09269 1406 ft 11 kts 270°
2026-04-20 12:09 46.22568 6.09185 1417 ft 8 kts 313°
2026-04-20 12:09 46.22616 6.09165 1415 ft 8 kts 11°
2026-04-20 12:09 46.22647 6.09195 1419 ft 0 kts 44°
2026-04-20 12:09 46.22654 6.09206 1415 ft 10 kts 45°
2026-04-20 12:10 46.22861 6.09508 1415 ft 78 kts 46°
2026-04-20 12:10 46.23411 6.10318 1397 ft 146 kts 45°
2026-04-20 12:10 46.24245 6.11484 1726 ft 180 kts 41°
2026-04-20 12:10 46.25243 6.12719 2499 ft 201 kts 41°
2026-04-20 12:11 46.26364 6.14198 3144 ft 237 kts 45°
2026-04-20 12:11 46.27521 6.16016 4023 ft 244 kts 49°
2026-04-20 12:11 46.28633 6.17955 4688 ft 259 kts 47°
2026-04-20 12:11 46.29902 6.19894 5313 ft 269 kts 45°
2026-04-20 12:12 46.31224 6.21841 6083 ft 273 kts 45°
2026-04-20 12:12 46.32568 6.23817 6787 ft 278 kts 44°
2026-04-20 12:12 46.33935 6.25828 7472 ft 281 kts 44°
2026-04-20 12:12 46.34813 6.27215 7917 ft 285 kts 52°
2026-04-20 12:13 46.35860 6.29678 8591 ft 289 kts 61°
2026-04-20 12:13 46.36734 6.32327 9256 ft 294 kts 65°
2026-04-20 12:13 46.37791 6.35982 10118 ft 301 kts 67°
2026-04-20 12:13 46.38556 6.38905 10385 ft 319 kts 71°
2026-04-20 12:14 46.38997 6.41016 10668 ft 326 kts 72°
2026-04-20 12:14 46.39645 6.44187 11254 ft 331 kts 72°
2026-04-20 12:14 46.40297 6.47416 11829 ft 335 kts 72°
2026-04-20 12:14 46.40951 6.50679 12412 ft 340 kts 72°
2026-04-20 12:15 46.41606 6.53954 12980 ft 344 kts 72°
2026-04-20 12:15 46.42276 6.57312 13558 ft 349 kts 71°
2026-04-20 12:15 46.42953 6.60707 14117 ft 353 kts 71°
2026-04-20 12:15 46.43728 6.64093 14643 ft 355 kts 64°
2026-04-20 12:16 46.44807 6.67316 15183 ft 356 kts 58°
2026-04-20 12:16 46.46043 6.70445 15715 ft 359 kts 55°
2026-04-20 12:16 46.47478 6.73397 16209 ft 359 kts 47°
2026-04-20 12:16 46.49026 6.76260 16698 ft 362 kts 47°
2026-04-20 12:17 46.50610 6.79117 16954 ft 362 kts 46°
2026-04-20 12:17 46.52199 6.81968 17036 ft 364 kts 46°
2026-04-20 12:17 46.53829 6.84781 17049 ft 363 kts 43°
2026-04-20 12:17 46.55502 6.87552 17074 ft 365 kts 45°
2026-04-20 12:18 46.57118 6.90398 17052 ft 364 kts 44°
2026-04-20 12:18 46.58834 6.93085 17057 ft 363 kts 42°
2026-04-20 12:18 46.60558 6.95768 17066 ft 363 kts 41°
2026-04-20 12:18 46.62273 6.98403 17053 ft 363 kts 41°
2026-04-20 12:19 46.64006 7.01070 17053 ft 363 kts 41°
2026-04-20 12:19 46.65734 7.03731 16783 ft 362 kts 42°
2026-04-20 12:19 46.67459 7.06390 16184 ft 359 kts 42°
2026-04-20 12:19 46.69165 7.09031 15628 ft 355 kts 42°
2026-04-20 12:20 46.70854 7.11638 15055 ft 353 kts 42°
2026-04-20 12:20 46.72528 7.14232 14536 ft 350 kts 43°
2026-04-20 12:20 46.74202 7.16823 13697 ft 356 kts 43°
2026-04-20 12:20 46.75958 7.19330 13071 ft 350 kts 36°
2026-04-20 12:21 46.77900 7.21433 12458 ft 345 kts 30°
2026-04-20 12:21 46.79910 7.23329 11850 ft 341 kts 28°
2026-04-20 12:21 46.81964 7.25015 11327 ft 334 kts 21°
2026-04-20 12:21 46.84036 7.26408 11096 ft 321 kts 21°
2026-04-20 12:22 46.86032 7.27736 10851 ft 310 kts 21°
2026-04-20 12:22 46.87942 7.28977 10607 ft 300 kts 21°
2026-04-20 12:22 46.89831 7.30201 9947 ft 296 kts 21°
2026-04-20 12:22 46.91704 7.31410 9176 ft 292 kts 21°
2026-04-20 12:23 46.93557 7.32611 8424 ft 288 kts 22°
2026-04-20 12:23 46.95287 7.34051 7688 ft 287 kts 41°
2026-04-20 12:23 46.96545 7.36299 7010 ft 284 kts 56°
2026-04-20 12:23 46.97549 7.38714 6379 ft 279 kts 60°
2026-04-20 12:24 46.98331 7.41289 5647 ft 276 kts 76°
2026-04-20 12:24 46.98549 7.44038 5031 ft 269 kts 87°
2026-04-20 12:24 46.98465 7.46750 4371 ft 265 kts 95°
2026-04-20 12:24 46.98212 7.49427 4172 ft 270 kts 97°
2026-04-20 12:25 46.97849 7.52102 4100 ft 269 kts 103°
2026-04-20 12:25 46.97293 7.54700 4044 ft 268 kts 105°
2026-04-20 12:25 46.96624 7.57249 3986 ft 266 kts 112°
2026-04-20 12:25 46.95805 7.59709 3981 ft 268 kts 115°
2026-04-20 12:26 46.94888 7.62075 4007 ft 270 kts 122°
2026-04-20 12:26 46.93782 7.64322 4023 ft 269 kts 125°
2026-04-20 12:26 46.92692 7.66454 4020 ft 254 kts 125°
2026-04-20 12:26 46.91564 7.68382 3971 ft 244 kts 132°
2026-04-20 12:27 46.90387 7.70126 3955 ft 238 kts 136°
2026-04-20 12:27 46.89145 7.71702 3960 ft 236 kts 143°
2026-04-20 12:27 46.87836 7.73095 3972 ft 230 kts 144°
2026-04-20 12:27 46.86590 7.74378 3949 ft 208 kts 144°
2026-04-20 12:28 46.85436 7.75473 3937 ft 189 kts 161°
2026-04-20 12:28 46.84191 7.75497 3954 ft 178 kts 199°
2026-04-20 12:28 46.83037 7.74853 4004 ft 178 kts 206°
2026-04-20 12:28 46.81929 7.74039 4011 ft 178 kts 212°
2026-04-20 12:29 46.80889 7.73051 4001 ft 178 kts 225°
2026-04-20 12:29 46.80159 7.71621 3998 ft 176 kts 245°
2026-04-20 12:29 46.79683 7.69980 4002 ft 175 kts 255°
2026-04-20 12:29 46.79387 7.68254 3996 ft 173 kts 261°
2026-04-20 12:30 46.79156 7.66527 3980 ft 174 kts 263°
2026-04-20 12:30 46.79369 7.64841 3978 ft 172 kts 305°
2026-04-20 12:30 46.80138 7.63535 4094 ft 170 kts 316°
2026-04-20 12:30 46.81007 7.62373 4092 ft 171 kts 320°
2026-04-20 12:31 46.81919 7.61257 4082 ft 171 kts 322°
2026-04-20 12:31 46.82845 7.60177 4070 ft 170 kts 321°
2026-04-20 12:31 46.83757 7.59053 3999 ft 173 kts 320°
2026-04-20 12:31 46.84654 7.57921 3828 ft 167 kts 319°
2026-04-20 12:32 46.85550 7.56855 3419 ft 171 kts 321°
2026-04-20 12:32 46.86502 7.55868 3130 ft 165 kts 326°
2026-04-20 12:32 46.87448 7.54874 2751 ft 164 kts 323°
2026-04-20 12:32 46.88276 7.53834 2497 ft 152 kts 316°
2026-04-20 12:33 46.88968 7.52737 2215 ft 143 kts 316°
2026-04-20 12:33 46.89722 7.51726 2060 ft 146 kts 322°
2026-04-20 12:33 46.90497 7.50803 1826 ft 141 kts 323°
2026-04-20 12:33 46.91193 7.49981 1683 ft 94 kts 322°
2026-04-20 12:34 46.91469 7.49647 1688 ft 9 kts 320°
2026-04-20 12:34 46.91512 7.49667 1690 ft 7 kts 50°
2026-04-20 12:34 46.91519 7.49682 1679 ft 0 kts 55°
2026-04-20 12:36 46.91520 7.49682 1679 ft 0 kts 55°
2026-04-20 12:36 46.91520 7.49683 1679 ft 1 kts 55°
2026-04-20 12:36 46.91528 7.49704 1687 ft 2 kts 71°
2026-04-20 12:36 46.91522 7.49724 1681 ft 2 kts 122°
2026-04-20 12:37 46.91507 7.49748 1679 ft 4 kts 134°
2026-04-20 12:37 46.91477 7.49785 1682 ft 7 kts 141°
2026-04-20 12:37 46.91436 7.49836 1679 ft 9 kts 140°
2026-04-20 12:37 46.91385 7.49892 1685 ft 10 kts 140°
2026-04-20 12:38 46.91327 7.49963 1679 ft 11 kts 140°
2026-04-20 12:38 46.91274 7.50026 1704 ft 7 kts 139°
2026-04-20 12:38 46.91257 7.50061 1731 ft 4 kts 98°
2026-04-20 12:38 46.91266 7.50095 1734 ft 1 kts 62°
2026-04-20 12:39 46.91272 7.50117 1738 ft 1 kts 86°
2026-04-20 12:39 46.91272 7.50118 1738 ft 0 kts 90°